GW0392 Weather Reports


Display with metric or nautical units.
time (UTC)temp
F
wind
direction
speed
MPH
gust
MPH
rain 1hr
in
rain 24hr
in
rain mn
in
humidity
%
barometer
mb
20260902004342 82 225 0.0 0.0 0.00 0.00 0.00 83 1017.8
20260902003838 82 224 0.0 0.0 0.00 0.00 0.00 83 1017.9
20260902003333 82 224 0.0 0.0 0.00 0.00 0.00 81 1017.7
20260902002829 83 225 0.0 0.0 0.00 0.00 0.00 81 1017.7
20260902002327 83 225 0.0 0.0 0.00 0.00 0.00 80 1017.5
20260902001823 83 225 0.0 0.0 0.00 0.00 0.00 80 1017.8
20260902001319 84 223 0.0 0.0 0.00 0.00 0.00 79 1017.8
20260902000818 84 223 0.0 0.0 0.00 0.00 0.00 77 1017.5
20260902000313 85 224 0.0 0.0 0.00 0.00 0.00 77 1017.7
20260901235808 85 223 0.0 0.0 0.00 0.00 0.00 76 1017.7
20260901235307 85 226 0.0 0.0 0.00 0.00 0.00 75 1017.7
20260901234802 86 226 0.0 0.0 0.00 0.00 0.00 74 1017.3
20260901234257 86 221 0.0 0.0 0.00 0.00 0.00 73 1017.7
20260901233758 87 227 0.0 0.0 0.00 0.00 0.00 73 1017.7
20260901233253 88 225 0.0 0.0 0.00 0.00 0.00 71 1017.9
20260901232749 88 225 0.0 0.0 0.00 0.00 0.00 69 1017.8
20260901232243 89 225 0.0 0.0 0.00 0.00 0.00 69 1017.9
20260901231739 89 225 0.0 0.0 0.00 0.00 0.00 67 1017.8
20260901231236 90 225 0.0 0.0 0.00 0.00 0.00 64 1017.7
20260901230726 90 225 0.0 0.0 0.00 0.00 0.00 63 1017.5
20260901230225 91 225 0.0 0.0 0.00 0.00 0.00 66 1017.9
20260901225721 91 225 0.0 0.0 0.00 0.00 0.00 62 1017.4
20260901225215 91 225 0.0 0.0 0.00 0.00 0.00 61 1017.7
20260901224711 91 225 0.0 0.0 0.00 0.00 0.00 60 1017.4
20260901224207 91 225 0.0 0.0 0.00 0.00 0.00 60 1017.5
20260901223703 92 225 0.0 0.0 0.00 0.00 0.00 58 1017.7
20260901223157 92 225 0.0 0.0 0.00 0.00 0.00 59 1017.5
20260901222654 92 225 0.0 0.0 0.00 0.00 0.00 58 1017.4
20260901222150 92 223 0.0 0.0 0.00 0.00 0.00 57 1017.4
20260901221646 93 223 0.0 0.0 0.00 0.00 0.00 56 1017.7
20260901221141 93 228 0.0 0.0 0.00 0.00 0.00 55 1017.4
20260901220640 93 229 0.0 0.0 0.00 0.00 0.00 54 1017.4
20260901220139 93 228 0.0 0.0 0.00 0.00 0.00 54 1017.5
20260901215638 93 230 0.0 0.0 0.00 0.00 0.00 54 1017.4
20260901215133 93 229 0.0 0.0 0.00 0.00 0.00 56 1017.3
20260901214631 92 226 0.0 0.0 0.00 0.00 0.00 56 1017.5
20260901214131 92 224 0.0 0.0 0.00 0.00 0.00 57 1017.4
20260901213625 91 223 0.0 0.0 0.00 0.00 0.00 61 1017.4
20260901213120 91 222 0.0 0.0 0.00 0.00 0.00 62 1017.5
20260901212619 91 222 0.0 0.0 0.00 0.00 0.00 63 1017.8
20260901212116 91 226 0.0 0.0 0.00 0.00 0.00 63 1017.7
20260901211610 91 226 0.0 0.0 0.00 0.00 0.00 60 1017.7
20260901211107 92 226 0.0 0.0 0.00 0.00 0.00 57 1017.8
20260901210602 92 226 0.0 0.0 0.00 0.00 0.00 54 1017.4
20260901210058 93 226 0.0 0.0 0.00 0.00 0.00 54 1017.7
20260901205554 93 226 0.0 0.0 0.00 0.00 0.00 52 1017.4
20260901205053 93 228 0.0 0.0 0.00 0.00 0.00 54 1017.7
20260901204550 93 226 0.0 0.0 0.00 0.00 0.00 54 1017.9
20260901204044 93 226 0.0 0.0 0.00 0.00 0.00 53 1017.7
20260901203539 94 227 0.0 0.0 0.00 0.00 0.00 51 1017.9
20260901203034 95 225 0.0 0.0 0.00 0.00 0.00 51 1018.0
20260901202528 94 225 0.0 1.0 0.00 0.00 0.00 50 1017.9
20260901202025 94 225 0.0 0.0 0.00 0.00 0.00 52 1018.1
20260901201520 93 224 0.0 1.0 0.00 0.00 0.00 52 1018.2
20260901201014 94 245 2.0 2.0 0.00 0.00 0.00 51 1018.2
20260901200508 94 228 0.0 1.0 0.00 0.00 0.00 50 1018.2
20260901200009 95 231 1.0 1.0 0.00 0.00 0.00 50 1018.3
20260901195506 95 216 0.0 1.0 0.00 0.00 0.00 49 1018.4
20260901195006 95 269 1.0 2.0 0.00 0.00 0.00 49 1018.4
20260901194501 94 242 1.0 2.0 0.00 0.00 0.00 50 1018.2
20260901193956 93 225 1.0 1.0 0.00 0.00 0.00 50 1018.6
20260901193451 94 228 0.0 1.0 0.00 0.00 0.00 54 1018.6
20260901192950 93 225 0.0 1.0 0.00 0.00 0.00 52 1018.7
20260901192446 93 226 0.0 1.0 0.00 0.00 0.00 55 1018.7
20260901191942 91 231 0.0 1.0 0.00 0.00 0.00 58 1018.9
20260901191438 92 226 0.0 1.0 0.00 0.00 0.00 57 1018.9
20260901190933 92 237 1.0 1.0 0.00 0.00 0.00 57 1019.1
20260901190428 92 216 1.0 2.0 0.00 0.00 0.00 57 1019.0
20260901185926 93 227 0.0 2.0 0.00 0.00 0.00 55 1018.9
20260901185426 92 226 0.0 1.0 0.00 0.00 0.00 53 1018.8
20260901184920 93 227 0.0 0.0 0.00 0.00 0.00 54 1019.1
20260901184416 93 224 0.0 0.0 0.00 0.00 0.00 52 1019.2
20260901183911 93 208 1.0 2.0 0.00 0.00 0.00 52 1019.3
20260901183410 94 235 1.0 1.0 0.00 0.00 0.00 52 1019.3
20260901182907 94 229 1.0 1.0 0.00 0.00 0.00 52 1019.1
20260901182402 95 231 1.0 2.0 0.00 0.00 0.00 50 1019.1
20260901181857 95 222 2.0 2.0 0.00 0.00 0.00 50 1019.3
20260901181357 95 218 1.0 2.0 0.00 0.00 0.00 52 1019.3
20260901180855 94 223 0.0 2.0 0.00 0.00 0.00 54 1019.5
20260901180355 93 207 1.0 2.0 0.00 0.00 0.00 54 1019.2
20260901175853 92 227 0.0 0.0 0.00 0.00 0.00 58 1019.5
20260901175348 92 228 0.0 0.0 0.00 0.00 0.00 56 1019.6
20260901174844 93 229 0.0 1.0 0.00 0.00 0.00 56 1019.4
20260901174339 92 228 0.0 2.0 0.00 0.00 0.00 57 1019.6
20260901173835 92 231 1.0 2.0 0.00 0.00 0.00 57 1019.8
20260901173329 92 220 0.0 1.0 0.00 0.00 0.00 58 1019.8
20260901172826 93 222 0.0 2.0 0.00 0.00 0.00 55 1019.8
20260901172325 93 215 2.0 2.0 0.00 0.00 0.00 54 1019.8
20260901171823 91 249 1.0 2.0 0.00 0.00 0.00 57 1020.0
20260901171322 89 231 0.0 2.0 0.00 0.00 0.00 59 1020.1
20260901170817 89 219 0.0 1.0 0.00 0.00 0.00 63 1020.1
20260901170317 90 234 1.0 2.0 0.00 0.00 0.00 60 1020.2
20260901165815 91 227 0.0 0.0 0.00 0.00 0.00 59 1020.3
20260901165310 92 228 0.0 0.0 0.00 0.00 0.00 58 1020.3
20260901164807 92 224 0.0 0.0 0.00 0.00 0.00 58 1020.1
20260901164302 91 218 1.0 1.0 0.00 0.00 0.00 59 1020.3
20260901163756 91 222 1.0 3.0 0.00 0.00 0.00 61 1020.1
20260901163251 91 220 1.0 5.0 0.00 0.00 0.00 60 1020.5
20260901162746 91 206 1.0 2.0 0.00 0.00 0.00 61 1020.7
20260901162245 91 219 1.0 2.0 0.00 0.00 0.00 58 1020.5
20260901161744 90 223 0.0 1.0 0.00 0.00 0.00 59 1020.5
20260901161239 90 200 1.0 2.0 0.00 0.00 0.00 62 1020.7
20260901160735 89 201 1.0 3.0 0.00 0.00 0.00 63 1020.5
20260901160231 90 224 0.0 2.0 0.00 0.00 0.00 63 1020.8
20260901155729 89 215 1.0 2.0 0.00 0.00 0.00 64 1020.9
20260901155224 89 225 1.0 2.0 0.00 0.00 0.00 64 1020.9
20260901154720 89 206 2.0 2.0 0.00 0.00 0.00 66 1020.9
20260901154214 88 163 2.0 2.0 0.00 0.00 0.00 66 1021.0
20260901153710 88 217 1.0 3.0 0.00 0.00 0.00 67 1021.0
20260901153203 87 221 0.0 2.0 0.00 0.00 0.00 68 1021.2
20260901152658 87 218 0.0 1.0 0.00 0.00 0.00 67 1021.2
20260901152157 87 182 1.0 3.0 0.00 0.00 0.00 68 1021.3
20260901151653 86 218 1.0 3.0 0.00 0.00 0.00 71 1021.2
20260901151152 86 215 1.0 2.0 0.00 0.00 0.00 71 1021.1
20260901150651 86 219 1.0 2.0 0.00 0.00 0.00 72 1021.1
20260901150150 85 219 0.0 0.0 0.00 0.00 0.00 72 1021.3
20260901145647 85 220 0.0 0.0 0.00 0.00 0.00 74 1021.3
20260901145142 84 226 1.0 1.0 0.00 0.00 0.00 75 1021.2
20260901144638 83 225 0.0 1.0 0.00 0.00 0.00 78 1021.3
20260901144132 83 231 0.0 1.0 0.00 0.00 0.00 78 1021.1
20260901143628 83 228 0.0 1.0 0.00 0.00 0.00 78 1021.2
20260901143124 82 227 0.0 0.0 0.00 0.00 0.00 79 1021.2
20260901142620 82 224 0.0 1.0 0.00 0.00 0.00 79 1021.3
20260901142119 81 228 1.0 2.0 0.00 0.00 0.00 79 1021.3
20260901141614 81 227 0.0 1.0 0.00 0.00 0.00 78 1021.1
20260901141109 81 226 0.0 0.0 0.00 0.00 0.00 80 1021.3
20260901140608 81 225 0.0 0.0 0.00 0.00 0.00 81 1021.4
20260901140107 82 220 0.0 0.0 0.00 0.00 0.00 80 1021.4
20260901135606 80 221 0.0 0.0 0.00 0.00 0.00 83 1021.3
20260901135056 78 225 0.0 0.0 0.00 0.00 0.00 88 1021.2
20260901134552 79 225 0.0 0.0 0.00 0.00 0.00 88 1021.3
20260901134052 78 226 0.0 0.0 0.00 0.00 0.00 87 1021.3
20260901133551 76 226 0.0 0.0 0.00 0.00 0.00 92 1021.2
20260901133050 75 226 0.0 0.0 0.00 0.00 0.00 93 1021.4
20260901132545 75 228 0.0 0.0 0.00 0.00 0.00 93 1021.3
20260901132044 74 225 0.0 0.0 0.00 0.00 0.00 95 1021.5
20260901131538 73 221 0.0 0.0 0.00 0.00 0.00 95 1021.4
20260901131029 73 221 0.0 0.0 0.00 0.00 0.00 96 1021.3
20260901130528 72 222 0.0 0.0 0.00 0.00 0.00 97 1021.3
20260901130027 72 226 0.0 0.0 0.00 0.00 0.00 98 1021.3
20260901125525 72 224 0.0 0.0 0.00 0.00 0.00 99 1021.2
20260901125021 71 224 0.0 0.0 0.00 0.00 0.00 99 1021.3
20260901124516 71 224 0.0 0.0 0.00 0.00 0.00 99 1021.2
20260901124015 71 224 0.0 0.0 0.00 0.00 0.00 99 1021.1
20260901123510 71 224 0.0 0.0 0.00 0.00 0.00 99 1021.3
20260901123009 70 224 0.0 0.0 0.00 0.00 0.00 99 1021.0
20260901122503 70 224 0.0 0.0 0.00 0.00 0.00 99 1021.1
20260901122002 70 224 0.0 0.0 0.00 0.00 0.00 99 1021.0
20260901121457 70 224 0.0 0.0 0.00 0.00 0.00 99 1020.9
20260901120952 70 221 0.0 0.0 0.00 0.00 0.00 99 1021.1
20260901120447 70 221 0.0 0.0 0.00 0.00 0.00 99 1020.9
20260901115942 69 221 0.0 0.0 0.00 0.00 0.00 99 1021.0
20260901115442 69 221 0.0 0.0 0.00 0.00 0.00 99 1020.6
20260901114940 69 221 0.0 0.0 0.00 0.00 0.00 99 1020.6
20260901114435 69 221 0.0 0.0 0.00 0.00 0.00 99 1020.6
20260901113933 69 221 0.0 0.0 0.00 0.00 0.00 99 1020.6
20260901113433 69 221 0.0 0.0 0.00 0.00 0.00 99 1020.3
20260901112928 69 220 0.0 0.0 0.00 0.00 0.00 99 1020.5
20260901112423 69 223 0.0 0.0 0.00 0.00 0.00 99 1020.4
20260901111918 69 223 0.0 0.0 0.00 0.00 0.00 99 1020.4
20260901111416 69 223 0.0 0.0 0.00 0.00 0.00 99 1020.0
20260901110915 69 223 0.0 0.0 0.00 0.00 0.00 99 1020.1
20260901110411 69 223 0.0 0.0 0.00 0.00 0.00 99 1020.1
20260901105907 69 223 0.0 0.0 0.00 0.00 0.00 99 1020.3
20260901105402 69 220 0.0 0.0 0.00 0.00 0.00 99 1020.0
20260901104858 69 220 0.0 0.0 0.00 0.00 0.00 99 1020.1
20260901104353 69 220 0.0 0.0 0.00 0.00 0.00 99 1020.2
20260901103849 69 220 0.0 0.0 0.00 0.00 0.00 99 1019.9
20260901103348 70 220 0.0 0.0 0.00 0.00 0.00 99 1020.0
20260901102843 69 220 0.0 0.0 0.00 0.00 0.00 99 1019.9
20260901102338 69 219 0.0 0.0 0.00 0.00 0.00 99 1019.8
20260901101833 69 220 0.0 0.0 0.00 0.00 0.00 99 1019.9
20260901101333 69 219 0.0 0.0 0.00 0.00 0.00 99 1019.9
20260901100827 70 219 0.0 0.0 0.00 0.00 0.00 99 1020.0
20260901100322 70 220 0.0 0.0 0.00 0.00 0.00 99 1019.8
20260901095821 70 220 0.0 0.0 0.00 0.00 0.00 99 1019.9
20260901095318 70 220 0.0 0.0 0.00 0.00 0.00 99 1019.9
20260901094813 70 220 0.0 0.0 0.00 0.00 0.00 99 1019.6
20260901094308 70 219 0.0 0.0 0.00 0.00 0.00 99 1019.8
20260901093803 70 219 0.0 0.0 0.00 0.00 0.00 99 1019.7
20260901093301 70 219 0.0 0.0 0.00 0.00 0.00 99 1019.9
20260901092757 70 219 0.0 0.0 0.00 0.00 0.00 99 1019.7
20260901092254 70 219 0.0 0.0 0.00 0.00 0.00 99 1019.8
20260901091749 70 219 0.0 0.0 0.00 0.00 0.00 99 1019.8
20260901091244 70 219 0.0 0.0 0.00 0.00 0.00 99 1019.8
20260901090744 70 219 0.0 0.0 0.00 0.00 0.00 99 1019.7
20260901090239 70 219 0.0 0.0 0.00 0.00 0.00 99 1019.5
20260901085735 70 219 0.0 0.0 0.00 0.00 0.00 99 1019.5
20260901085230 70 219 0.0 0.0 0.00 0.00 0.00 99 1019.6
20260901084726 70 219 0.0 0.0 0.00 0.00 0.00 99 1019.6
20260901084222 70 219 0.0 0.0 0.00 0.00 0.00 99 1019.5
20260901083717 70 219 0.0 0.0 0.00 0.00 0.00 99 1019.4
20260901083216 70 219 0.0 0.0 0.00 0.00 0.00 99 1019.5
20260901082715 70 219 0.0 0.0 0.00 0.00 0.00 99 1019.3
20260901082210 70 219 0.0 0.0 0.00 0.00 0.00 99 1019.4
20260901081701 71 220 0.0 0.0 0.00 0.00 0.00 99 1019.5
20260901081200 71 220 0.0 0.0 0.00 0.00 0.00 99 1019.4
20260901080655 71 220 0.0 0.0 0.00 0.00 0.00 99 1019.4
20260901080154 71 220 0.0 0.0 0.00 0.00 0.00 99 1019.4
20260901075649 71 220 0.0 0.0 0.00 0.00 0.00 99 1019.3
20260901075149 71 220 0.0 0.0 0.00 0.00 0.00 98 1019.1
20260901074648 71 220 0.0 0.0 0.00 0.00 0.00 98 1019.4
20260901074144 71 220 0.0 0.0 0.00 0.00 0.00 98 1019.4
20260901073640 71 220 0.0 0.0 0.00 0.00 0.00 98 1019.1
20260901073135 71 220 0.0 0.0 0.00 0.00 0.00 98 1019.3
20260901072630 71 220 0.0 0.0 0.00 0.00 0.00 98 1019.2
20260901072125 71 220 0.0 0.0 0.00 0.00 0.00 98 1019.2
20260901071619 71 221 0.0 0.0 0.00 0.00 0.00 98 1019.2
20260901071119 71 220 0.0 0.0 0.00 0.00 0.00 97 1019.5
20260901070613 71 220 0.0 0.0 0.00 0.00 0.00 97 1019.3
20260901070109 71 221 0.0 0.0 0.00 0.00 0.00 97 1019.3
20260901065602 71 222 0.0 0.0 0.00 0.00 0.00 97 1019.4
20260901065057 71 222 0.0 0.0 0.00 0.00 0.00 97 1019.4
20260901064554 71 222 0.0 0.0 0.00 0.00 0.00 97 1019.4
20260901064050 71 220 0.0 0.0 0.00 0.00 0.00 97 1019.6
20260901063547 71 220 0.0 0.0 0.00 0.00 0.00 97 1019.6
20260901063043 71 223 0.0 0.0 0.00 0.00 0.00 96 1019.7
20260901062538 72 221 0.0 0.0 0.00 0.00 0.00 96 1019.9
20260901062034 72 221 0.0 0.0 0.00 0.00 0.00 96 1019.8
20260901061531 72 221 0.0 0.0 0.00 0.00 0.00 96 1019.7
20260901061031 72 221 0.0 0.0 0.00 0.00 0.00 96 1019.5
20260901060525 72 221 0.0 0.0 0.00 0.00 0.00 96 1019.6
20260901060020 72 221 0.0 0.0 0.00 0.00 0.00 95 1019.8
20260901055515 72 221 0.0 0.0 0.00 0.00 0.00 95 1019.5
20260901055012 72 221 0.0 0.0 0.00 0.00 0.00 95 1019.7
20260901054509 72 221 0.0 0.0 0.00 0.00 0.00 95 1019.8
20260901054005 72 221 0.0 0.0 0.00 0.00 0.00 95 1019.7
20260901053500 72 221 0.0 0.0 0.00 0.00 0.00 95 1019.7
20260901052956 72 221 0.0 0.0 0.00 0.00 0.00 95 1019.6
20260901052452 72 221 0.0 0.0 0.00 0.00 0.00 94 1019.6
20260901051950 72 221 0.0 0.0 0.00 0.00 0.00 94 1019.6
20260901051446 72 221 0.0 0.0 0.00 0.00 0.00 94 1019.8
20260901050945 72 221 0.0 0.0 0.00 0.00 0.00 94 1019.6
20260901050441 72 221 0.0 0.0 0.00 0.00 0.00 94 1019.7
20260901045940 72 221 0.0 0.0 0.00 0.00 0.00 94 1019.7
20260901045436 72 221 0.0 0.0 0.00 0.00 0.00 94 1019.4
20260901044931 72 221 0.0 0.0 0.00 0.00 0.00 93 1019.6
20260901044427 72 221 0.0 0.0 0.00 0.00 0.00 93 1019.7
20260901043922 73 223 0.0 0.0 0.00 0.00 0.00 93 1019.4
20260901043419 73 221 0.0 0.0 0.00 0.00 0.00 93 1019.4
20260901042918 73 221 0.0 0.0 0.00 0.00 0.00 93 1019.4
20260901042413 73 221 0.0 0.0 0.00 0.00 0.00 93 1019.5
20260901041908 73 221 0.0 0.0 0.00 0.00 0.00 93 1019.5
20260901041403 73 221 0.0 0.0 0.00 0.00 0.00 92 1019.3
20260901040903 73 221 0.0 0.0 0.00 0.00 0.00 92 1019.6
20260901040402 73 221 0.0 0.0 0.00 0.00 0.00 92 1019.5
20260901035856 73 221 0.0 0.0 0.00 0.00 0.00 92 1019.5
20260901035354 73 226 0.0 0.0 0.00 0.00 0.00 92 1019.4
20260901034853 73 226 0.0 0.0 0.00 0.00 0.00 92 1019.6
20260901034348 73 226 0.0 0.0 0.00 0.00 0.00 91 1019.5
20260901033843 74 226 0.0 0.0 0.00 0.00 0.00 91 1019.5
20260901033342 74 226 0.0 0.0 0.00 0.00 0.00 91 1019.5
20260901032841 74 226 0.0 0.0 0.00 0.00 0.00 91 1019.4
20260901032340 74 226 0.0 0.0 0.00 0.00 0.00 91 1019.5
20260901031836 74 225 0.0 0.0 0.00 0.00 0.00 91 1019.5
20260901031332 74 225 0.0 0.0 0.00 0.00 0.00 90 1019.5
20260901030831 74 226 0.0 0.0 0.00 0.00 0.00 90 1019.3
20260901030327 75 226 0.0 0.0 0.00 0.00 0.00 90 1019.5
20260901025826 75 226 0.0 0.0 0.00 0.00 0.00 90 1019.9
20260901025321 75 226 0.0 0.0 0.00 0.00 0.00 90 1019.7
20260901024816 75 225 0.0 0.0 0.00 0.00 0.00 91 1019.6
20260901024315 75 225 0.0 0.0 0.00 0.00 0.00 91 1019.6
20260901023813 75 226 0.0 0.0 0.00 0.00 0.00 90 1019.6
20260901023308 75 226 0.0 0.0 0.00 0.00 0.00 90 1019.5
20260901022804 76 226 0.0 0.0 0.00 0.00 0.00 90 1019.5
20260901022259 75 226 0.0 0.0 0.00 0.00 0.00 90 1019.4
20260901021754 76 226 0.0 0.0 0.00 0.00 0.00 90 1019.3
20260901021250 76 226 0.0 0.0 0.00 0.00 0.00 89 1019.2
20260901020745 76 226 0.0 0.0 0.00 0.00 0.00 89 1019.4
20260901020240 76 226 0.0 0.0 0.00 0.00 0.00 89 1019.1
20260901015735 77 226 0.0 0.0 0.00 0.00 0.00 88 1019.2
20260901015231 77 227 0.0 0.0 0.00 0.00 0.00 87 1019.2
20260901014730 77 227 0.0 0.0 0.00 0.00 0.00 87 1019.1
20260901014226 77 227 0.0 0.0 0.00 0.00 0.00 86 1019.0
20260901013721 77 227 0.0 0.0 0.00 0.00 0.00 86 1018.8
20260901013217 77 227 0.0 0.0 0.00 0.00 0.00 85 1018.8
20260901012712 77 227 0.0 0.0 0.00 0.00 0.00 85 1018.7
20260901012213 78 227 0.0 0.0 0.00 0.00 0.00 84 1018.8
20260901011708 78 227 0.0 0.0 0.00 0.00 0.00 84 1018.6
20260901011208 78 227 0.0 0.0 0.00 0.00 0.00 84 1018.6
20260901010702 78 227 0.0 0.0 0.00 0.00 0.00 83 1018.8
20260901010157 78 227 0.0 0.0 0.00 0.00 0.00 83 1018.5
20260901005656 79 227 0.0 0.0 0.00 0.00 0.00 82 1018.5
20260901005151 79 227 0.0 0.0 0.00 0.00 0.00 82 1018.4
20260901004651 79 227 0.0 0.0 0.00 0.00 0.00 79 1018.1